Lapse_Rate
6.4 6.6 6.7 6.7 6.7 6.9 6.9 7.1 7.1 6.7 6.7 6.8 6.6 6.2 5.7 6.0 6.1 6.0 5.9 5.8 5.6 5.8 5.7 6.0 6.0 5.8 5.8 5.8 5.8 5.7 5.7 5.5 5.4 5.4 5.2 5.1 4.9 4.9 5.0 5.2 4.7 4.6 4.3 5.8
6.1 6.4 6.5 6.7 6.5 6.5 6.7 6.7 6.9 7.0 6.7 6.2 6.2 6.1 5.9 5.9 5.7 6.0 6.1 6.1 5.9 5.8 5.7 5.8 5.9 5.9 6.1 6.0 6.0 6.0 5.8 5.8 5.7 5.5 5.4 5.4 5.3 5.5 5.3 5.1 4.8 4.7 4.4 6.2
5.8 5.9 6.1 6.2 6.1 6.1 5.9 6.1 6.2 6.6 6.7 6.7 6.2 6.0 5.8 5.9 5.9 5.8 5.8 5.9 5.9 6.1 5.8 5.5 5.4 5.6 5.5 5.5 5.7 5.7 5.7 5.7 6.0 6.1 6.0 5.9 5.7 5.9 5.6 5.0 4.7 5.2 5.3 6.7
5.6 5.6 5.6 5.7 5.8 5.9 5.9 5.8 5.8 5.8 6.0 6.0 6.3 6.1 6.2 6.0 5.8 5.7 5.9 5.9 5.8 5.5 5.9 6.0 5.9 5.7 5.5 5.4 5.5 5.3 5.0 5.2 5.5 5.9 5.8 5.5 5.7 5.8 5.4 4.9 5.5 5.0 5.8 5.9
5.6 5.6 5.6 5.5 5.5 5.6 5.7 5.6 5.7 5.7 5.7 5.8 5.7 6.0 5.7 5.9 6.0 5.8 5.7 5.5 5.8 5.8 5.3 5.1 5.2 5.4 5.6 5.6 5.6 5.3 5.2 5.0 5.0 5.4 5.3 5.1 5.2 5.7 5.9 5.5 5.3 4.9 4.9 5.4
5.7 5.5 5.3 5.5 5.5 5.5 5.4 5.9 5.7 5.7 5.6 5.6 5.6 5.6 5.7 5.8 5.8 5.9 5.9 5.7 5.6 5.5 5.8 5.8 5.5 5.2 4.9 4.7 4.9 5.1 4.9 5.0 4.8 4.6 5.1 4.5 4.4 5.7 5.7 5.4 5.5 5.4 5.1 6.6
5.8 5.9 5.8 5.7 5.4 5.3 5.5 5.5 5.6 5.4 5.5 5.4 5.5 5.2 5.2 5.3 5.5 5.7 5.8 5.5 5.6 5.5 5.4 5.2 5.2 5.4 5.2 5.1 5.0 4.6 4.5 4.4 4.3 4.1 4.2 3.3 5.7 5.4 5.2 5.3 5.2 5.1 5.3 5.5
5.5 5.4 5.5 5.7 5.6 5.5 5.3 5.4 5.6 5.6 5.7 5.4 5.3 5.2 5.2 5.0 4.9 4.7 4.9 5.2 5.5 5.3 5.6 5.7 5.5 5.4 5.3 5.3 4.9 4.5 4.5 4.2 4.1 4.1 3.6 4.9 5.7 5.8 5.6 5.4 5.1 5.4 5.4 5.5
5.0 5.1 5.2 5.1 5.2 5.3 5.4 5.4 5.4 5.6 5.5 5.8 5.5 5.3 5.3 5.2 5.1 5.0 4.9 4.6 4.3 4.4 4.5 4.6 4.4 5.2 5.5 5.4 5.3 5.5 4.7 4.3 4.0 4.0 3.9 3.8 5.2 5.2 5.0 5.0 4.9 4.8 5.1 4.9
4.9 4.9 5.0 5.2 5.0 4.9 4.9 4.8 4.9 5.0 5.0 5.6 5.7 5.8 5.7 5.5 5.3 5.0 5.0 5.0 4.9 4.5 4.1 3.6 3.8 4.3 4.9 5.0 5.1 5.6 5.4 4.2 4.3 4.1 4.1 4.7 5.6 5.2 5.1 4.9 4.7 4.7 4.9 4.8
5.2 5.1 4.9 5.0 5.3 5.5 5.1 4.7 4.6 4.5 4.7 5.1 5.2 5.4 5.4 5.4 5.6 5.6 5.1 5.0 5.3 4.7 4.5 4.1 4.4 3.9 4.4 4.3 4.8 5.5 5.8 5.8 5.0 4.0 4.1 4.3 5.7 5.3 5.2 5.2 5.1 5.0 4.9 4.9
4.5 4.6 4.5 4.8 4.8 5.0 5.4 5.4 4.7 4.4 4.3 4.6 4.8 5.0 4.9 4.8 5.0 5.1 5.1 5.0 4.8 4.5 4.5 4.2 3.9 4.0 3.8 4.7 4.4 5.4 5.3 5.7 5.9 6.0 6.0 5.9 5.5 5.5 5.2 5.3 5.1 5.0 5.1 5.1
4.4 4.3 4.4 4.6 4.4 4.6 4.5 5.0 4.9 5.0 4.8 4.8 5.0 5.0 4.9 4.4 4.6 4.6 4.6 4.9 4.9 4.6 4.5 4.1 3.9 3.8 3.9 4.3 4.4 5.0 5.3 5.5 5.4 5.6 5.9 5.8 5.7 5.1 4.9 4.7 4.6 4.8 4.8 4.8
4.4 4.4 4.4 4.3 4.5 4.5 4.2 4.3 4.4 4.3 4.2 4.6 4.6 4.4 4.4 4.7 5.0 4.9 4.6 4.5 4.4 4.4 4.1 4.3 4.1 4.0 4.0 4.1 4.5 4.5 4.9 5.3 5.4 5.3 5.4 5.3 5.2 5.0 5.0 4.9 4.8 4.7 4.7 4.6
4.5 4.6 4.7 4.6 4.5 4.5 4.5 4.5 4.4 4.6 4.4 4.1 3.5 4.1 4.6 4.8 5.0 5.3 4.9 4.7 4.8 4.7 4.3 4.1 4.0 4.5 5.0 4.6 4.4 4.1 5.5 5.3 5.1 5.2 5.1 4.9 5.3 5.5 5.7 5.4 5.1 4.9 4.6 4.6
4.8 4.7 4.8 4.6 4.7 4.6 4.8 4.6 4.7 4.8 4.5 3.9 3.6 3.5 4.2 4.9 5.3 5.5 5.4 5.1 4.5 4.6 4.8 4.1 4.5 5.0 5.3 5.3 4.9 5.3 5.3 5.1 5.3 4.9 4.8 4.8 4.9 5.1 5.3 5.3 5.3 5.1 4.9 4.8
4.5 4.6 4.6 4.6 4.6 4.8 5.1 4.8 4.7 4.7 4.6 4.3 3.8 4.1 4.3 5.1 5.9 5.8 5.5 5.1 5.1 5.1 4.7 4.4 4.3 4.4 5.0 5.4 4.9 5.5 5.7 5.5 5.4 5.0 5.0 4.9 5.0 5.0 5.1 5.0 4.8 4.9 4.8 4.9
5.0 4.9 5.0 5.1 5.3 5.2 5.2 5.2 4.9 4.7 4.3 4.1 3.9 4.3 4.4 4.7 5.0 5.1 5.1 5.0 4.9 5.2 5.2 4.7 4.4 4.7 4.8 5.0 5.1 5.6 6.1 6.0 5.8 5.4 5.0 4.8 4.8 4.9 4.9 4.7 4.7 4.7 4.8 4.8
5.2 5.4 5.3 5.2 5.2 5.1 5.1 4.8 4.4 4.1 4.0 3.8 3.8 4.3 4.5 4.5 4.7 4.7 4.7 4.6 4.5 4.5 4.6 4.9 4.9 4.8 4.7 5.2 6.4 6.3 6.1 5.6 5.3 5.4 5.3 5.1 4.9 5.0 5.2 5.2 5.2 5.0 4.9 5.1
5.5 5.4 5.2 5.0 4.7 4.7 4.5 4.4 4.4 4.1 4.1 3.8 4.3 4.6 4.6 4.5 4.3 4.0 4.0 4.0 4.5 4.4 4.3 4.6 4.6 5.0 6.0 6.8 6.3 6.3 6.1 5.7 5.5 5.2 5.1 5.2 5.2 5.2 4.9 4.9 4.9 4.8 5.0 5.2
4.8 4.7 4.6 4.7 4.7 4.5 4.5 4.5 4.4 4.5 4.3 4.5 4.6 4.8 4.6 4.4 4.5 4.4 4.2 4.3 4.5 4.1 4.5 5.0 5.2 5.5 6.2 6.3 6.2 6.0 6.0 6.1 6.0 5.8 5.6 5.5 5.5 5.4 5.3 5.2 5.1 5.1 5.1 4.9
4.5 4.6 4.6 4.6 4.5 4.6 4.9 4.8 4.9 5.1 5.3 5.1 5.1 4.9 4.9 5.2 5.1 4.9 4.9 4.9 4.8 5.1 5.1 5.4 5.4 6.2 6.4 6.5 6.7 6.7 6.8 6.8 6.7 6.7 6.3 6.2 5.8 5.2 5.0 5.1 5.1 5.3 5.4 5.5
4.9 4.8 4.8 4.9 4.9 5.1 5.3 5.6 5.7 5.9 5.9 5.8 5.6 5.5 5.5 5.8 5.9 5.8 5.9 5.8 6.0 6.1 6.1 6.2 6.7 7.0 7.1 6.9 7.1 7.1 7.1 7.0 6.9 6.5 6.2 6.0 5.8 5.5 5.3 5.3 5.5 5.5 5.8 6.1
5.2 5.2 5.2 5.6 5.7 5.9 6.4 6.7 6.8 6.8 6.5 6.4 6.5 6.6 6.6 6.7 6.8 6.8 6.6 6.9 6.8 7.1 7.3 7.5 7.9 8.2 8.3 7.8 7.3 7.1 7.0 6.7 6.5 6.4 6.3 6.2 6.3 6.2 6.3 6.6 6.6 6.5 6.6 6.5
5.6 5.7 5.7 5.9 6.7 7.5 7.5 7.4 7.5 7.3 7.3 7.4 7.4 7.4 7.3 7.2 7.2 7.1 7.3 7.6 7.7 8.0 8.3 8.4 8.4 8.3 8.0 7.6 7.3 7.0 6.8 7.0 7.2 7.5 7.7 7.8 7.6 7.4 7.4 7.4 7.3 7.1 6.9 6.8
5.9 5.7 7.1 7.7 7.9 8.0 8.1 8.0 7.8 7.8 7.8 7.7 7.7 7.7 7.8 7.7 7.7 7.7 7.8 7.9 8.0 8.1 8.5 8.3 8.1 7.9 7.7 7.5 7.5 7.3 7.4 7.7 7.8 7.8 7.8 7.9 7.9 7.9 7.8 7.6 7.7 7.9 7.9 7.7
5.9 7.5 8.4 8.4 8.4 8.5 8.4 8.2 8.0 7.9 7.9 7.8 7.7 7.6 7.8 8.1 8.0 8.0 8.1 8.3 8.2 8.1 7.7 7.4 7.3 7.4 7.4 7.6 7.5 7.5 7.6 8.3 8.5 8.3 8.0 7.7 7.7 7.8 7.8 7.8 7.9 7.9 7.8 7.8
Wind_Speed
21 21 23 24 25 26 7 2 3 2 2 4 2 3 3 1 2 1 1 1 2 2 3 1 2 3 2 1 2 3 1 4 3 4 2 3 3 4 4 4 4 2 3 6
22 21 21 23 22 18 2 2 2 2 3 4 3 1 3 3 3 2 1 1 2 1 2 1 1 1 1 2 2 3 2 1 2 6 4 3 3 4 4 3 2 5 5 6
21 22 23 24 25 18 4 3 3 4 4 1 4 2 1 2 2 2 2 2 1 2 1 2 2 1 1 2 2 2 2 2 5 6 4 4 4 5 6 6 3 3 6 5
19 21 23 26 27 16 3 3 0 2 2 4 3 1 1 1 2 0 2 2 2 1 2 3 5 4 2 0 1 1 2 3 2 5 7 4 6 8 8 9 11 8 5 10
14 19 22 25 28 10 4 2 2 2 1 2 2 3 1 1 0 3 1 1 3 2 3 2 3 3 3 5 2 6 2 2 1 4 5 5 6 11 14 15 13 11 12 20
11 14 16 19 25 13 3 1 2 3 3 1 2 3 3 3 1 1 2 3 1 3 4 3 3 3 2 2 6 6 5 5 3 5 2 6 8 9 13 5 6 12 14 13
8 9 11 13 15 11 2 0 3 2 2 1 2 1 2 3 3 4 2 2 2 1 3 5 3 3 5 5 6 3 4 3 2 3 3 2 4 4 5 10 5 8 8 6
9 9 8 6 7 10 1 2 3 2 1 2 4 1 2 3 3 3 3 3 3 1 3 2 4 3 5 1 3 2 2 4 1 2 3 8 2 3 4 4 0 3 4 3
8 7 8 6 6 6 1 1 1 2 4 4 2 2 2 2 2 4 1 1 2 3 2 2 4 5 5 3 1 3 2 2 4 1 2 5 3 1 2 2 3 5 2 0
7 5 3 1 3 3 3 2 1 2 2 4 4 4 4 5 3 2 3 1 2 3 2 2 4 5 4 5 7 6 4 2 10 6 4 8 6 4 1 4 4 2 2 3
10 6 5 4 3 2 2 2 4 0 2 4 4 4 4 2 2 4 4 2 2 2 3 4 4 4 4 1 3 6 8 7 4 6 4 9 6 3 5 3 2 5 3 1
12 8 6 5 4 4 8 2 1 4 2 4 3 4 4 5 7 4 2 3 4 5 1 2 1 3 1 2 3 2 3 6 5 8 6 4 5 3 2 3 3 2 2 4
11 9 6 2 4 3 6 2 2 2 2 4 2 6 5 1 6 5 4 3 5 3 5 4 3 5 3 3 5 3 4 4 3 2 2 3 3 2 3 3 4 5 5 4
8 5 5 4 1 1 1 2 3 1 2 3 4 2 4 2 2 5 4 3 2 1 2 3 3 2 3 3 4 4 4 2 3 4 5 6 2 2 4 6 4 3 5 5
10 6 4 3 3 1 1 1 2 2 2 2 2 6 2 4 2 6 2 3 3 2 2 3 4 2 3 3 2 8 5 8 7 12 5 3 12 11 7 4 4 4 4 4
9 7 7 4 2 2 2 1 1 0 2 1 2 2 2 4 6 3 2 2 2 2 3 3 3 2 3 4 5 4 7 10 14 14 6 7 14 13 4 3 4 4 5 4
7 6 3 2 2 1 1 3 2 0 2 1 3 4 2 1 2 1 1 2 2 2 3 4 3 4 5 2 9 3 6 5 7 7 10 10 4 3 3 3 4 4 3 3
3 3 1 1 1 2 2 2 3 1 1 1 3 4 3 2 0 0 0 1 1 2 3 1 1 1 2 5 5 7 9 13 12 10 3 1 1 1 3 3 2 4 4 4
3 1 2 3 2 1 2 2 4 3 2 2 3 3 3 1 0 1 0 1 2 2 3 3 3 3 6 5 7 7 8 5 3 4 4 2 2 4 3 3 4 3 5 5
4 3 2 0 2 1 1 2 2 2 2 1 2 2 2 2 0 1 0 1 3 2 3 0 3 5 6 8 7 6 4 3 3 2 2 3 2 4 5 5 5 5 6 6
2 2 1 1 1 3 1 1 3 1 2 3 3 4 2 1 2 3 3 2 2 2 3 2 2 3 3 7 7 7 7 7 6 4 3 4 5 6 6 8 6 7 8 7
3 3 2 2 3 3 0 2 2 3 4 2 2 2 2 1 1 2 2 2 2 5 2 1 2 2 3 3 5 8 9 9 9 7 9 12 9 7 7 7 10 9 7 8
3 3 4 3 2 4 6 5 3 1 3 2 1 1 2 1 1 1 2 2 4 1 1 3 3 2 2 3 3 6 6 9 10 12 14 9 12 12 8 10 9 8 7 10
3 3 1 4 3 5 4 4 4 4 2 4 3 1 2 2 2 2 1 4 1 3 3 5 3 5 7 8 6 3 7 8 9 10 10 11 10 11 12 10 10 11 11 12
2 4 3 5 4 2 3 1 1 2 3 3 2 2 2 2 1 1 3 5 4 4 4 3 4 9 7 7 5 7 8 9 9 10 9 11 12 11 12 11 10 11 12 11
3 1 1 3 2 3 1 2 2 2 3 2 2 2 2 3 3 2 6 5 6 5 4 4 4 7 7 7 7 9 9 10 11 11 12 12 13 13 14 13 12 13 13 13
2 4 2 2 1 3 3 4 3 4 3 3 3 3 9 1 1 3 4 6 10 7 5 4 6 6 8 8 9 10 11 12 12 12 12 12 14 12 11 13 15 14 13 13
Wind_Direction
356 355 351 353 358 354 40 68 46 293 23 51 41 56 6 201 175 173 17 64 24 33 347 64 123 177 204 275 146 134 170 135 172 215 262 212 201 205 156 126 231 222 148 273
354 354 353 350 354 10 359 66 272 307 84 72 28 342 33 26 346 313 124 117 77 16 349 45 92 247 251 132 74 168 179 107 41 346 347 351 229 210 177 112 75 209 150 259
351 353 353 351 348 359 102 61 24 336 42 89 115 107 90 34 358 308 343 319 340 130 136 13 234 143 228 32 27 126 96 167 185 191 196 142 206 218 191 160 151 204 228 275
352 354 352 353 350 3 94 39 334 211 333 354 89 78 127 103 344 335 352 323 259 299 241 187 189 163 173 10 178 73 101 243 203 261 244 237 225 226 207 202 217 206 212 228
359 2 354 352 351 6 77 82 106 21 245 291 85 16 102 160 261 167 292 226 358 201 289 288 287 162 216 203 168 166 151 235 122 283 287 248 263 249 237 234 233 245 256 272
352 4 2 358 358 6 79 354 14 98 310 351 89 210 175 156 144 170 169 203 253 282 229 195 256 275 286 243 170 194 169 158 123 256 331 311 285 244 222 189 202 218 229 248
336 10 9 6 8 23 107 184 105 69 294 250 217 248 221 205 195 186 175 142 168 310 336 309 280 244 237 207 236 175 158 149 155 270 3 260 244 264 199 197 226 225 272 257
318 343 0 17 17 7 40 166 129 131 228 231 319 236 262 328 316 271 237 183 185 314 29 28 336 329 344 113 32 166 171 148 227 255 252 302 297 179 153 179 144 198 166 79
295 329 344 355 8 2 56 325 76 118 133 230 191 197 203 212 250 334 265 0 356 48 94 130 212 226 218 231 219 13 98 98 154 135 218 258 299 198 148 119 251 197 154 48
272 303 333 8 327 354 26 305 295 80 207 257 167 190 184 153 147 200 297 254 141 85 130 211 218 247 198 205 183 167 142 156 209 205 242 279 242 225 168 131 209 117 85 58
231 239 244 227 213 231 114 296 322 306 252 273 226 203 165 139 153 165 197 48 301 82 180 180 220 209 244 250 172 181 167 161 193 188 214 261 171 77 177 213 16 105 71 168
225 228 230 221 217 211 172 174 97 331 283 277 304 282 277 191 189 154 225 199 160 203 134 266 304 247 246 187 256 76 242 189 182 191 209 236 205 17 72 96 130 217 240 259
196 199 187 216 283 275 208 152 141 136 217 281 9 257 293 203 221 183 181 253 214 185 181 178 220 241 139 214 236 229 251 186 229 141 313 302 291 109 97 191 226 255 252 260
147 144 120 123 101 24 205 172 157 132 280 258 280 318 294 319 173 203 209 184 27 22 152 205 222 217 185 222 251 206 213 181 207 237 279 307 113 179 243 244 228 200 251 242
126 127 116 107 105 38 102 199 192 228 199 272 292 308 261 310 279 263 255 169 155 179 261 234 235 216 202 210 238 243 195 236 259 267 262 244 280 292 279 257 261 287 259 278
140 140 132 121 58 15 101 51 60 132 154 304 278 256 307 350 2 0 267 245 236 216 200 206 217 218 217 246 251 280 210 224 234 251 244 230 255 257 165 239 259 258 260 268
141 132 120 80 67 87 167 193 146 314 173 143 305 304 313 68 95 18 14 1 243 237 238 236 223 205 211 235 263 313 236 248 249 198 208 257 228 237 302 261 284 295 292 295
139 138 138 139 13 13 327 309 251 197 105 145 242 266 336 11 62 3 0 26 10 237 264 311 245 263 201 244 225 215 236 249 265 276 162 156 94 16 345 345 335 334 321 306
134 94 97 59 41 76 259 29 66 58 142 199 208 168 251 20 326 321 327 135 229 208 234 218 193 199 231 233 240 259 270 261 299 74 49 61 74 10 335 298 317 322 299 295
122 80 67 305 252 231 135 34 56 8 318 257 235 3 260 113 111 275 19 190 245 251 231 200 218 251 267 252 257 283 293 139 93 116 81 27 305 315 314 295 283 260 263 271
75 108 150 354 6 68 9 260 128 217 237 222 232 191 238 324 169 216 199 220 233 251 265 209 262 269 317 347 42 45 60 65 57 63 36 340 291 293 305 306 289 278 268 262
163 143 95 32 44 43 148 245 276 208 228 193 182 169 181 292 280 216 286 219 71 245 133 189 256 276 301 34 48 46 33 27 11 355 345 330 305 283 268 264 269 275 283 285
42 51 55 56 306 66 175 202 225 279 192 171 130 87 143 209 252 274 248 297 234 43 215 233 224 201 157 98 32 360 347 323 304 284 285 283 287 284 267 271 271 267 272 281
100 118 264 155 227 241 193 184 192 225 137 131 159 185 172 198 235 227 241 243 272 246 252 234 236 219 201 194 203 207 269 278 268 274 277 259 259 271 273 268 270 276 274 273
134 99 220 213 222 251 245 218 37 261 148 107 73 44 81 355 288 278 356 351 263 210 232 222 220 217 214 224 229 235 251 270 274 272 272 274 276 275 275 272 261 254 261 259
108 167 269 238 87 287 242 226 217 194 130 106 65 109 74 241 174 87 218 137 228 242 216 228 217 227 236 240 249 271 277 270 269 271 271 269 270 270 273 278 274 272 265 264
125 263 249 160 159 201 208 176 209 165 122 177 113 150 218 48 30 257 198 209 252 249 253 243 231 232 247 247 253 268 273 268 264 264 264 261 265 272 274 272 273 274 273 275